TimeMDT,TemperatureF,Dew PointF,Humidity,Sea Level PressureIn,VisibilityMPH,Wind Direction,Wind SpeedMPH,Gust SpeedMPH,PrecipitationIn,Events,Conditions,WindDirDegrees,DateUTC
12:56 AM,57.9,36.0,44,29.93,10.0,South,6.9,-,N/A,,Clear,190,2013-05-13 06:56:00
1:56 AM,54.0,37.9,55,29.95,10.0,SSE,6.9,-,N/A,,Clear,150,2013-05-13 07:56:00
2:56 AM,54.0,37.0,53,29.95,10.0,South,5.8,-,N/A,,Clear,170,2013-05-13 08:56:00
3:56 AM,52.0,37.0,57,29.94,10.0,SSE,9.2,-,N/A,,Clear,150,2013-05-13 09:56:00
4:56 AM,53.1,37.0,55,29.93,10.0,SSE,9.2,-,N/A,,Clear,160,2013-05-13 10:56:00
5:56 AM,48.0,37.0,66,29.95,10.0,Calm,Calm,-,N/A,,Clear,0,2013-05-13 11:56:00
6:56 AM,48.9,39.0,69,29.96,10.0,SE,6.9,-,N/A,,Clear,140,2013-05-13 12:56:00
7:56 AM,51.8,41.0,67,30.07,10.0,Calm,Calm,-,N/A,,Clear,0,2013-05-13 13:56:00
8:56 AM,64.0,37.9,38,29.95,10.0,Calm,Calm,-,N/A,,Clear,0,2013-05-13 14:56:00
9:56 AM,70.0,42.1,36,29.92,10.0,Calm,Calm,-,N/A,,Clear,0,2013-05-13 15:56:00
10:56 AM,75.0,37.0,25,29.91,10.0,Calm,Calm,-,N/A,,Clear,0,2013-05-13 16:56:00
11:56 AM,79.0,37.9,23,29.87,10.0,Variable,4.6,-,N/A,,Clear,0,2013-05-13 17:56:00
12:56 PM,82.0,42.1,24,29.83,10.0,WNW,8.1,16.1,N/A,,Clear,300,2013-05-13 18:56:00
1:51 PM,84.2,28.4,13,29.92,10.0,West,16.1,21.9,N/A,,Clear,260,2013-05-13 19:51:00
2:56 PM,86.0,27.0,12,29.76,10.0,SSW,16.1,24.2,N/A,,Clear,210,2013-05-13 20:56:00
3:56 PM,82.9,26.1,13,29.76,7.0,WSW,40.3,50.6,N/A,,Squalls,240,2013-05-13 21:56:00
4:56 PM,82.9,32.0,16,29.75,10.0,SSW,16.1,-,N/A,,Clear,210,2013-05-13 22:56:00
5:56 PM,82.0,33.1,17,29.73,10.0,SSW,21.9,39.1,N/A,,Clear,200,2013-05-13 23:56:00
6:56 PM,84.0,33.1,16,29.66,10.0,SSW,12.7,17.3,N/A,,Clear,210,2013-05-14 00:56:00
7:56 PM,82.0,28.0,14,29.65,10.0,WSW,19.6,34.5,N/A,,Clear,240,2013-05-14 01:56:00
8:56 PM,78.1,28.0,16,29.65,10.0,WSW,12.7,-,N/A,,Clear,240,2013-05-14 02:56:00
9:56 PM,75.0,25.0,16,29.68,10.0,West,10.4,-,N/A,,Clear,260,2013-05-14 03:56:00
10:56 PM,70.0,30.0,23,29.70,10.0,WNW,16.1,-,N/A,,Clear,300,2013-05-14 04:56:00
11:03 PM,68.0,32.0,26,29.84,10.0,NW,15.0,25.3,N/A,,Clear,320,2013-05-14 05:03:00
11:56 PM,62.1,42.1,48,29.76,10.0,North,11.5,-,N/A,,Clear,350,2013-05-14 05:56:00